Theta_e
297 298 300 300 301 302 302 303 304 304 306 308 311 313 317 323 326 326 325 323 321 319 319 318 317 316 314 312 311 311 310 309 307 306 307 307 308 311 314 318 321 324 328 329 331 331 332 332 333 333 334 334 333 334 334 332 331 332 332 332 332 333 332 329 330 330 328 328 327 327 324 323 323 321 320 320 319 318 318 318 318 318 318 318 317
299 300 301 301 302 303 304 304 305 306 307 308 313 315 317 322 325 325 321 318 316 315 313 311 310 310 310 309 308 307 307 306 305 304 304 304 305 306 310 313 315 318 322 326 328 330 332 333 332 333 334 334 333 333 335 335 332 331 333 333 333 333 332 331 331 329 328 328 327 325 323 322 321 320 319 319 318 318 317 317 317 317 317 317 317
301 301 302 304 305 306 307 308 307 307 308 311 314 317 320 321 322 318 315 313 312 312 310 307 306 305 305 304 304 304 303 303 303 304 303 303 303 303 305 308 311 313 317 320 324 327 330 333 333 335 335 335 334 333 333 334 334 331 329 331 332 330 331 332 331 330 328 327 325 323 322 321 320 319 318 317 317 316 316 316 316 316 316 316 316
301 302 304 306 307 308 309 311 311 313 313 314 317 316 314 313 312 311 309 309 308 306 305 303 302 302 303 302 303 302 302 302 302 302 302 302 302 302 302 303 305 308 311 314 318 323 327 331 332 334 336 337 335 334 333 334 334 332 332 332 333 332 333 332 330 328 327 326 324 322 321 320 319 319 318 317 316 316 315 315 315 315 315 315 314
301 303 306 305 306 307 308 309 310 311 313 313 312 312 312 311 309 309 307 306 304 303 302 301 300 300 300 300 301 300 301 300 300 300 300 300 300 300 300 301 301 304 306 309 312 317 323 329 331 334 335 336 334 334 333 334 334 334 333 333 332 333 334 332 329 327 326 324 322 321 320 319 319 318 317 316 316 315 314 314 313 313 313 314 313
301 303 305 304 305 305 306 306 308 309 310 309 308 308 307 306 306 305 304 303 302 302 300 299 299 299 299 299 299 299 299 298 298 298 298 298 298 298 299 299 300 300 301 304 308 313 317 324 329 331 333 333 332 332 333 334 335 335 334 332 333 332 330 327 325 324 323 322 321 320 319 318 317 316 315 315 315 314 314 313 313 312 312 312 312
300 302 304 304 303 303 303 304 305 307 306 306 305 305 305 304 303 301 301 300 299 299 298 297 297 296 297 298 297 298 298 297 297 297 297 297 297 297 297 298 298 299 299 300 303 308 313 317 323 327 328 329 330 331 330 331 330 333 333 332 329 326 326 324 321 321 321 320 320 319 318 317 316 315 315 314 313 313 313 312 312 311 311 311 311
298 301 303 303 302 302 302 303 303 304 303 303 304 303 302 302 302 302 299 298 298 296 297 296 296 295 296 296 296 296 296 296 295 295 296 296 295 296 296 296 297 298 299 299 299 301 308 312 316 320 324 326 327 327 328 329 328 328 327 326 326 325 324 323 322 320 320 319 318 317 316 316 315 314 314 313 312 311 311 311 311 311 310 310 310
295 299 302 301 301 301 302 302 303 302 301 301 301 301 300 300 299 300 299 296 296 295 295 295 294 294 294 294 295 295 294 295 295 295 295 294 294 294 294 294 296 297 296 297 298 298 302 307 310 312 315 323 324 326 326 326 326 325 324 324 324 324 323 322 320 320 319 318 317 317 316 315 314 314 313 312 312 311 311 310 309 309 309 310 309
293 296 300 301 301 300 301 302 302 301 300 300 299 299 299 298 296 297 297 297 295 294 293 294 294 293 293 294 294 294 294 294 295 295 294 294 294 293 293 293 294 294 295 296 296 297 298 301 304 306 308 314 321 324 324 325 325 325 324 324 322 322 321 321 320 319 317 316 315 315 314 313 313 312 312 311 310 310 310 310 310 309 309 309 309
292 293 296 299 299 300 300 300 301 301 300 299 299 299 298 297 296 296 296 295 294 294 294 294 294 293 293 293 293 293 294 295 294 294 293 293 294 294 293 293 293 294 294 294 295 295 297 297 298 299 301 308 313 320 322 322 322 323 324 324 323 322 321 319 318 317 316 315 315 314 313 313 312 312 311 311 310 310 310 309 309 308 308 308 308
291 292 293 297 297 298 298 299 300 300 299 298 298 298 297 296 296 296 295 295 296 295 295 294 294 293 293 292 293 294 293 294 294 293 294 293 293 294 293 294 293 293 293 294 294 295 295 296 297 297 299 302 307 310 314 319 321 322 322 322 322 322 321 319 318 316 315 315 314 313 313 312 312 311 310 310 309 309 308 308 307 307 307 307 307
290 290 291 293 295 297 297 296 297 297 298 298 298 298 298 297 297 297 296 295 295 297 297 298 296 294 294 293 293 293 293 293 293 293 293 293 294 293 293 292 292 292 292 293 293 294 294 295 295 297 297 298 300 304 307 312 319 320 320 320 320 320 320 319 318 316 315 314 313 312 312 311 310 309 308 308 308 308 307 308 307 306 307 307 307
288 289 289 290 291 294 295 296 295 295 297 298 298 298 297 297 297 296 297 296 295 296 298 299 296 294 294 294 295 293 292 292 292 292 292 293 293 293 292 292 291 292 293 293 293 293 293 294 295 296 296 296 297 298 300 303 310 317 318 318 319 319 318 319 318 317 315 313 312 311 310 309 308 308 308 308 308 308 308 307 307 306 307 308 307
285 288 288 288 289 291 292 294 295 296 294 294 295 296 296 296 296 296 295 296 296 296 298 299 295 294 295 294 291 292 292 292 292 292 292 292 293 292 292 291 290 291 291 292 292 292 293 293 293 294 294 295 296 297 298 300 307 312 315 316 317 318 318 317 316 316 314 312 310 308 308 308 309 309 309 308 307 307 307 307 307 307 307 307 307
284 285 288 286 287 288 289 291 292 295 294 293 293 294 295 295 295 295 295 293 293 295 297 297 296 296 293 292 293 292 293 293 290 292 291 291 291 291 292 290 290 290 291 290 290 291 292 293 292 293 293 294 295 295 295 298 304 306 310 313 315 317 317 316 315 315 314 311 309 310 309 309 308 309 308 307 307 307 307 306 306 306 306 306 306
284 284 287 286 285 286 287 288 289 291 293 294 294 294 294 292 292 293 292 293 293 294 295 296 296 296 297 294 291 290 291 288 287 290 289 289 290 290 290 291 290 290 290 289 289 290 290 291 291 292 293 293 294 294 295 295 297 298 302 309 312 314 317 316 315 315 313 311 310 309 309 308 307 307 307 307 306 306 305 305 305 305 305 306 306
283 284 284 288 284 285 285 287 287 289 291 289 290 293 294 294 293 291 291 291 293 294 294 295 295 294 293 295 295 293 290 286 289 289 285 286 289 288 290 290 290 290 290 289 289 289 290 289 290 291 292 292 293 293 294 294 297 298 301 305 311 312 315 315 315 314 313 311 309 308 308 308 307 307 306 306 306 305 305 305 304 305 304 305 305
283 282 283 285 284 284 284 285 286 287 290 287 287 288 290 291 294 293 292 294 294 294 294 294 296 293 293 294 295 294 291 288 288 287 288 286 284 286 287 288 289 288 288 288 288 288 288 288 288 289 289 291 291 292 291 291 293 296 299 304 309 310 311 314 314 313 313 311 308 307 307 306 306 306 305 305 305 304 304 304 304 304 304 304 304
282 282 282 283 287 284 283 284 285 286 288 284 284 285 287 288 290 291 293 294 294 294 293 295 295 295 294 292 293 293 292 293 292 293 292 289 288 285 284 284 285 286 287 287 287 286 286 286 287 287 287 288 288 288 288 288 288 287 289 299 305 308 309 311 314 313 312 311 308 307 305 305 305 305 305 305 305 304 305 305 305 304 304 304 304
281 282 282 282 287 285 282 283 283 285 287 284 283 283 284 284 286 287 286 289 291 293 293 294 295 294 293 293 292 292 292 293 291 292 290 287 287 282 282 280 281 282 283 284 285 284 285 285 286 286 286 286 287 287 287 286 286 285 290 295 301 305 308 309 311 311 313 311 309 308 306 305 305 305 305 304 304 304 304 304 304 304 305 304 304
281 281 282 282 282 284 283 283 283 286 289 282 282 282 282 282 282 284 285 287 284 288 291 291 293 294 293 292 289 289 291 290 289 287 287 290 289 286 282 280 281 281 281 281 282 282 282 283 283 283 283 284 284 284 285 285 285 286 287 291 295 299 304 307 309 309 310 309 308 307 306 306 306 305 304 304 304 304 304 304 305 305 305 304 305
281 282 281 281 281 287 284 284 285 287 286 282 282 282 283 283 282 282 282 285 284 284 287 286 288 289 290 290 290 291 290 288 285 284 284 283 282 281 279 279 280 279 278 279 282 281 281 281 281 282 282 282 282 282 282 282 286 287 290 290 292 296 301 304 306 308 307 308 307 306 305 306 306 306 305 305 306 306 305 305 305 305 305 305 305
281 281 281 280 283 283 284 281 284 283 283 282 281 281 282 282 281 283 282 282 283 286 282 284 283 283 284 284 286 287 287 288 285 284 283 282 283 283 282 277 278 278 279 278 278 280 280 280 281 281 281 281 281 282 282 283 282 288 287 290 291 294 298 302 305 306 307 307 307 307 306 306 306 306 305 305 305 305 306 306 306 306 305 306 305
283 281 281 280 282 283 282 283 282 282 285 283 282 281 281 282 283 282 281 282 282 282 282 282 282 283 283 281 283 283 286 284 283 284 282 282 282 281 278 278 281 277 275 277 278 277 280 280 281 281 281 281 282 282 282 282 281 285 289 289 291 292 294 298 302 305 306 307 307 307 307 306 306 306 306 304 305 306 306 305 305 305 305 305 305
284 283 283 281 282 283 284 284 282 281 283 283 281 281 281 281 281 282 281 281 280 281 281 281 280 281 280 281 280 283 283 283 283 283 281 281 280 281 281 277 276 277 276 276 276 279 279 280 281 281 280 281 281 281 281 281 282 287 288 285 286 291 293 295 298 301 304 306 306 307 307 307 307 307 305 305 305 305 305 305 305 305 305 304 304
284 284 283 282 282 281 282 282 282 282 282 283 285 282 281 282 283 283 283 281 281 281 281 280 282 280 279 280 282 280 280 280 281 283 283 283 282 280 282 282 279 276 277 277 276 277 281 277 279 280 281 281 281 281 281 281 283 286 288 286 283 290 292 295 297 299 302 304 306 307 306 307 307 306 306 305 305 305 305 304 304 304 304 304 304
284 283 283 282 283 282 282 283 283 282 282 283 282 282 281 281 282 282 283 284 281 281 282 280 281 280 280 279 279 281 281 280 280 281 282 283 284 281 282 282 281 280 278 277 277 278 278 279 279 280 280 281 282 281 283 284 282 287 289 284 282 284 291 293 295 297 300 303 304 305 306 306 306 306 306 305 305 304 304 305 305 305 305 305 306
284 283 284 282 282 282 282 282 282 282 282 282 282 282 281 282 283 281 282 281 282 282 282 281 282 280 280 279 280 280 280 280 280 281 281 281 282 281 283 283 282 280 279 277 277 278 279 279 280 279 280 281 281 281 282 282 284 286 283 283 283 281 287 291 294 296 298 299 302 304 305 306 306 306 307 306 306 307 306 306 306 306 306 307 307
285 285 284 283 283 285 283 283 283 281 282 282 281 281 281 281 282 281 282 281 281 282 283 282 282 281 281 281 281 280 281 280 280 280 281 281 280 281 281 282 282 282 281 279 280 279 280 279 279 279 279 280 281 282 282 282 286 287 283 282 282 282 288 291 293 295 296 297 299 301 303 304 305 305 305 306 306 307 307 307 306 307 307 308 308
285 284 283 283 283 283 282 283 283 283 282 282 281 281 281 281 281 282 281 280 281 281 282 282 283 282 281 281 281 281 281 280 280 280 281 281 281 280 280 281 281 281 281 279 277 279 281 282 281 280 279 279 280 281 282 282 284 286 283 282 282 285 288 288 292 294 295 296 297 299 300 302 303 304 305 305 306 306 306 307 306 307 307 308 307
285 284 283 283 284 283 283 283 283 282 282 282 282 281 281 281 281 282 281 280 280 281 281 282 282 282 281 281 282 282 281 280 281 280 280 281 281 280 280 280 279 280 280 279 279 280 280 280 280 280 280 280 279 280 280 282 284 288 283 283 283 287 286 284 289 292 294 295 296 297 298 299 301 302 303 304 305 306 306 306 306 306 306 305 304
285 284 284 284 283 283 283 283 283 283 283 282 282 282 281 281 281 281 281 280 280 281 281 281 281 281 282 282 282 282 281 281 281 281 281 280 280 281 281 280 280 280 280 279 279 280 280 279 280 281 279 279 279 280 280 281 281 282 286 283 283 283 283 283 283 289 291 293 295 296 297 297 298 300 301 302 303 304 304 304 305 304 303 302 302
284 285 284 284 284 283 283 283 283 283 283 283 282 282 282 281 281 282 282 281 280 281 280 280 281 281 281 281 282 282 282 281 281 281 281 280 280 280 280 280 280 280 280 280 279 278 279 279 279 279 279 279 280 279 280 280 280 281 281 283 283 282 282 282 282 283 289 291 293 295 296 296 296 297 297 298 300 301 301 301 300 300 300 300 300
285 285 285 284 284 283 283 283 283 283 283 283 282 282 282 282 282 282 282 281 281 281 281 281 281 281 280 281 281 282 282 281 281 281 281 281 281 281 281 280 280 280 280 280 279 279 279 280 281 281 280 279 280 282 280 281 282 281 280 281 282 283 283 283 282 283 287 290 292 294 295 296 296 296 297 297 297 298 298 298 298 298 298 299 299
285 286 284 284 284 283 283 283 283 283 283 283 282 282 282 282 282 282 282 282 282 282 282 282 281 281 281 280 281 281 281 281 281 281 281 281 281 281 281 281 280 280 280 280 280 280 280 279 280 281 281 279 280 281 281 281 281 280 280 281 281 281 282 283 282 282 285 289 291 292 293 294 295 296 296 297 297 297 297 297 297 297 297 297 297
286 285 285 283 283 283 284 284 284 283 283 283 283 282 282 282 282 282 282 282 282 282 282 282 283 282 281 281 281 281 281 280 281 281 281 280 281 281 280 281 280 281 281 280 280 280 279 279 280 281 281 280 281 280 281 281 281 280 280 280 282 282 281 281 282 283 287 288 290 291 292 293 294 295 296 296 297 297 297 297 297 297 297 297 297
286 285 285 285 285 284 284 284 284 284 284 284 283 283 283 283 282 282 282 282 282 282 282 282 282 282 282 282 282 281 281 280 281 281 281 281 281 280 280 281 281 281 280 280 280 279 279 279 279 280 281 281 280 280 280 281 281 280 280 281 281 281 281 281 281 282 283 284 284 286 289 291 293 293 294 295 295 296 296 296 296 296 295 295 296
285 285 285 285 285 285 285 284 284 284 284 284 284 283 283 283 282 282 282 282 282 282 282 282 282 282 282 282 282 282 282 281 281 281 281 281 281 281 281 281 281 280 280 280 279 279 279 278 279 279 280 281 281 281 282 281 281 281 281 281 281 281 281 281 282 282 283 283 286 287 287 287 288 289 292 294 294 295 295 295 295 295 295 295 296
285 285 285 286 286 284 285 284 285 285 284 284 283 283 283 283 283 282 282 282 282 282 282 282 282 282 282 282 282 283 282 282 282 282 282 282 281 281 282 281 281 280 280 280 279 279 278 278 279 279 279 280 281 281 281 280 279 279 280 280 280 281 281 281 280 281 282 283 283 283 286 287 288 289 290 291 292 293 294 294 294 293 294 295 296
285 285 285 285 285 285 284 284 284 284 284 285 285 284 284 283 283 283 283 283 282 282 282 282 282 282 282 282 283 283 284 285 286 285 285 285 283 281 281 281 281 281 280 280 280 279 279 279 278 279 279 279 280 280 279 279 279 280 281 280 280 281 281 281 281 281 282 282 283 282 283 284 283 284 284 284 286 289 290 292 292 292 293 294 295
284 284 284 284 284 284 284 284 284 284 285 285 286 288 288 286 284 284 283 283 283 282 282 282 282 282 282 282 283 285 285 285 286 286 287 287 287 285 283 282 282 281 281 280 280 280 280 279 279 279 278 278 279 280 280 280 281 281 280 279 279 280 279 280 281 281 282 281 282 281 282 284 283 282 282 282 283 284 285 286 287 289 291 293 294
284 284 283 284 284 284 284 284 284 284 285 286 288 289 290 291 288 285 284 284 283 283 282 282 282 282 282 282 282 284 285 285 285 286 287 287 288 288 288 287 285 283 281 280 281 281 281 280 280 280 279 279 280 281 280 281 281 281 280 280 280 280 279 278 278 280 282 283 282 281 281 283 283 281 282 282 283 283 284 284 288 289 291 292 293
284 283 283 284 284 284 284 284 284 285 285 287 289 290 291 291 290 288 286 285 285 284 283 283 283 283 283 283 283 283 283 283 283 283 285 287 287 288 288 288 288 288 287 284 282 281 281 281 280 280 280 279 280 281 281 281 281 281 281 281 280 280 279 279 279 279 281 282 281 280 280 282 283 282 282 283 283 284 284 286 289 290 291 291 292
283 283 284 284 284 284 283 284 284 285 285 287 289 290 290 291 291 290 287 286 285 285 285 284 284 283 283 283 283 283 283 285 284 283 282 283 286 287 288 288 288 288 289 289 288 285 284 282 281 280 280 281 281 281 282 282 283 281 280 280 280 280 280 280 280 280 279 281 281 280 280 281 281 282 281 283 283 284 284 287 289 290 291 291 291
283 284 284 283 284 284 284 284 284 285 285 287 289 290 290 290 291 290 287 286 286 285 285 285 285 284 284 283 283 283 283 283 283 283 282 282 282 282 283 284 285 286 288 289 288 288 287 284 283 281 282 282 282 283 284 285 283 282 281 280 280 280 280 280 281 281 281 281 281 281 280 281 281 281 281 283 284 283 284 286 288 290 290 291 291
284 284 284 284 284 284 284 284 284 284 285 288 289 289 290 290 291 290 287 286 286 285 285 285 285 285 284 284 284 283 283 283 283 283 282 282 281 282 281 281 282 283 284 284 285 286 287 287 286 284 284 284 284 284 285 285 285 284 284 283 283 282 282 282 281 281 281 281 282 281 279 282 281 281 281 282 282 283 283 286 289 289 290 291 291
284 284 284 284 284 284 284 284 283 284 285 288 289 289 290 290 291 288 286 285 285 285 285 285 285 285 284 284 284 284 284 284 285 287 286 283 281 281 281 281 281 282 282 285 287 287 287 287 287 287 286 287 288 286 286 285 285 285 285 284 284 282 281 280 280 281 281 281 282 281 280 281 280 280 282 282 281 281 282 282 286 289 290 290 291
284 284 284 284 284 284 284 283 283 284 285 287 288 289 289 290 290 286 285 284 284 284 284 284 284 284 284 284 284 284 284 284 286 287 288 287 283 282 281 281 282 282 282 283 286 288 288 289 289 289 290 290 290 291 291 290 288 287 285 283 282 282 281 279 280 280 281 282 281 282 281 280 281 280 281 282 280 281 280 280 280 286 289 290 290
284 285 284 284 284 284 284 284 284 284 284 286 287 288 289 290 289 285 284 283 283 283 283 283 283 283 284 285 284 284 283 284 286 288 288 287 284 283 282 281 281 281 282 283 284 285 287 288 288 289 289 289 290 290 291 291 291 290 286 283 284 283 281 281 280 281 282 282 281 281 280 280 281 280 280 278 274 276 277 277 278 280 285 288 289
285 285 284 284 284 284 284 284 283 284 284 285 287 288 289 289 288 285 284 283 282 283 282 282 283 283 283 283 284 285 284 285 287 288 288 287 284 283 283 282 282 282 283 283 283 282 282 282 283 284 285 286 286 286 286 289 289 288 288 287 286 284 283 282 282 282 281 282 283 282 280 281 281 281 279 276 276 276 274 276 277 277 278 280 282
Wind_Speed
8 8 7 8 6 6 5 5 4 6 6 6 5 5 5 5 0 3 4 5 7 7 5 8 7 6 8 7 6 7 7 5 5 5 5 4 4 7 13 13 12 12 12 11 10 10 11 13 16 18 20 21 20 19 18 18 18 18 18 18 16 17 15 17 17 17 18 16 17 17 15 15 13 10 9 9 8 9 9 10 11 11 11 10 10
10 9 10 9 7 6 5 5 4 5 5 5 4 4 5 5 1 4 7 7 8 8 8 8 9 8 7 8 7 6 6 6 6 5 6 5 5 5 12 13 14 13 13 13 13 13 14 14 15 17 19 21 22 21 19 17 18 19 20 19 19 16 19 17 19 20 19 19 19 17 15 15 12 11 10 9 9 9 9 9 9 9 10 11 10
9 10 9 7 6 6 6 5 4 4 4 4 4 3 3 6 7 7 8 9 8 6 8 9 8 9 9 8 7 7 8 7 7 5 5 5 5 5 6 12 13 14 13 13 14 14 16 15 14 15 18 20 22 22 21 20 18 18 21 18 16 17 19 21 21 21 22 20 19 16 15 14 12 11 11 10 9 8 8 8 8 9 9 9 10
9 9 9 8 8 8 7 5 4 3 3 2 4 6 7 8 9 9 8 9 9 8 7 10 8 8 10 10 7 6 6 7 7 6 5 5 5 5 5 6 11 13 14 14 15 16 17 16 14 13 16 20 21 21 20 20 17 17 17 17 17 18 19 22 24 23 22 20 18 16 15 14 12 11 11 10 9 8 8 7 7 7 7 8 8
9 9 8 8 8 8 7 6 5 5 6 6 7 7 8 8 9 9 9 8 10 9 9 8 10 7 9 8 7 7 5 4 5 5 5 4 4 5 5 5 5 9 12 14 14 15 17 19 15 11 9 17 18 20 19 18 19 17 17 18 18 21 25 24 18 19 19 18 17 16 15 13 12 11 10 9 9 8 8 7 6 6 7 7 7
9 8 8 8 9 8 8 8 8 7 5 5 8 6 8 9 8 9 8 9 8 8 10 9 8 8 8 7 7 4 4 5 5 5 4 4 4 4 4 4 5 5 6 10 13 15 17 19 18 17 16 16 6 8 13 13 17 18 19 18 18 18 15 14 17 15 16 17 17 15 14 12 11 9 9 8 8 8 7 6 6 6 6 5 5
10 9 8 8 7 8 8 8 7 7 7 7 7 7 8 8 8 11 8 9 9 8 8 9 8 9 8 5 6 5 4 5 4 5 5 4 4 4 4 4 5 5 5 5 8 13 17 18 19 18 19 20 24 17 15 21 12 14 18 20 22 19 19 18 12 12 13 15 15 15 13 11 10 10 8 7 6 6 6 6 6 6 6 5 5
10 9 8 8 7 7 7 7 8 7 7 8 8 8 7 8 7 9 11 8 8 8 7 8 8 9 6 7 6 6 6 6 6 6 4 4 5 4 4 5 5 5 5 5 6 8 15 17 19 21 16 17 19 19 19 24 23 21 21 22 23 21 18 18 16 15 14 14 14 13 12 11 9 9 8 7 6 5 4 4 5 6 6 5 4
10 9 7 8 8 8 8 8 7 6 8 7 8 7 7 8 8 8 7 7 8 10 8 7 8 8 7 8 7 6 7 6 5 5 4 5 5 4 5 5 6 6 5 5 5 6 10 15 16 18 20 13 15 17 19 20 21 20 19 20 20 21 18 17 16 15 14 14 13 13 12 11 11 10 9 7 7 6 5 3 2 3 5 5 4
11 9 7 7 7 7 7 9 7 6 7 7 7 7 8 8 9 9 8 7 7 8 9 7 6 7 7 7 7 6 6 6 5 5 5 6 5 5 5 4 5 6 5 5 6 5 6 10 14 15 16 16 13 15 16 18 20 19 20 19 18 19 19 17 16 14 13 13 12 12 11 10 10 9 9 8 5 4 4 4 4 3 3 3 3
10 10 9 8 8 7 7 8 6 6 7 7 8 8 8 8 10 10 9 8 8 7 7 6 7 7 7 7 6 6 4 5 5 5 5 6 5 5 4 5 5 5 6 6 6 6 7 6 7 7 8 16 16 13 13 14 15 17 19 21 21 19 17 17 16 14 14 12 12 12 10 9 8 8 7 7 6 5 4 2 1 1 1 3 3
9 9 8 8 8 8 7 7 6 6 7 8 7 6 8 9 9 9 9 7 7 6 6 7 7 7 6 5 6 5 5 4 4 5 4 4 5 4 5 5 5 4 5 5 6 6 6 7 6 6 6 10 15 15 13 7 12 15 16 18 20 22 22 19 16 14 13 13 13 12 11 10 9 8 7 6 5 5 4 4 3 3 3 2 2
8 8 8 7 7 6 7 7 6 6 7 7 7 8 7 6 6 6 8 8 5 4 4 2 5 5 3 5 5 5 5 5 6 5 5 4 4 4 5 5 5 5 5 5 5 6 6 6 6 6 6 6 8 12 13 14 5 11 13 14 16 17 18 19 17 15 14 13 12 11 10 9 7 6 5 4 5 5 4 5 5 5 4 5 4
6 6 7 7 7 7 7 7 7 6 6 6 7 7 6 6 4 5 5 4 3 2 2 1 4 3 2 1 2 2 3 3 3 4 4 4 4 4 4 4 4 4 4 4 5 6 6 6 5 6 6 6 6 6 7 7 8 6 10 12 14 15 16 18 18 16 13 11 9 8 9 8 8 7 7 7 7 7 7 7 7 5 5 6 6
6 6 6 6 7 6 6 6 6 5 5 6 6 6 6 6 6 4 4 4 3 2 4 4 2 1 2 2 2 3 0 2 2 3 3 2 2 3 3 3 4 3 3 4 4 4 4 5 5 6 6 6 5 5 5 6 7 10 6 8 13 14 16 16 17 17 15 12 10 7 8 9 10 9 10 9 8 8 8 8 7 8 7 6 7
6 5 5 5 5 6 5 6 6 5 5 5 5 5 5 5 4 4 3 3 3 3 3 4 3 0 2 2 0 1 2 2 3 1 1 1 2 2 2 2 3 4 3 4 4 4 4 3 5 5 5 5 5 5 5 5 9 11 11 9 7 12 14 17 16 15 16 14 12 12 11 10 10 11 10 9 10 9 8 7 8 7 7 7 8
5 5 4 5 4 5 5 5 5 5 4 4 4 3 3 3 3 3 3 3 2 1 2 1 3 2 3 2 2 2 0 2 2 2 0 0 1 1 0 1 1 1 2 1 2 2 2 3 3 3 4 4 5 5 4 5 6 5 7 9 2 8 13 16 14 15 15 14 14 11 11 9 10 9 9 9 8 9 8 8 8 7 7 6 7
4 4 4 4 5 4 4 5 5 6 5 3 3 4 5 4 2 2 3 1 3 2 2 1 2 3 3 2 1 1 1 1 1 2 0 0 1 1 1 1 1 1 1 1 1 1 0 1 1 2 1 2 3 3 4 4 5 5 5 7 8 4 11 13 16 15 14 11 10 10 10 10 9 10 9 9 9 7 9 9 8 7 7 8 8
3 3 4 4 3 4 4 3 3 4 3 5 5 4 3 3 3 3 1 1 2 3 2 2 2 3 1 1 2 1 3 2 1 1 3 1 2 2 1 2 2 2 2 3 2 2 2 2 2 2 1 1 1 2 3 3 5 6 10 10 11 8 4 11 11 13 14 13 11 10 9 8 8 8 9 9 8 9 7 8 9 8 8 8 7
1 2 2 3 3 4 3 3 3 3 3 4 3 3 3 3 3 2 2 2 2 2 0 0 2 1 1 2 2 2 3 1 2 0 1 3 3 1 1 2 2 3 4 3 3 3 3 2 2 2 1 1 1 1 1 2 2 3 4 9 10 10 7 7 13 14 14 12 10 10 8 8 9 10 10 10 10 10 12 11 10 9 9 8 8
1 1 1 1 1 1 2 3 3 3 2 3 2 2 3 3 4 4 3 3 2 1 1 0 1 1 1 1 1 2 2 1 2 2 2 2 4 1 2 2 2 5 5 3 4 3 3 3 2 2 2 2 2 2 1 2 1 1 2 6 8 9 9 10 9 13 16 13 13 13 11 10 10 10 10 10 10 11 10 10 9 10 9 9 9
3 2 2 1 1 0 0 1 1 1 1 1 2 3 3 3 1 1 1 1 2 0 0 1 2 2 2 2 2 1 1 1 1 2 0 1 4 4 2 2 4 3 2 4 4 4 3 3 3 3 3 4 3 3 2 2 2 2 3 5 5 7 7 8 7 8 14 13 11 12 11 11 11 10 10 10 10 11 11 10 10 10 10 10 10
4 3 2 2 2 0 0 0 0 0 0 1 1 1 0 0 1 1 1 0 1 0 0 0 0 1 2 3 4 3 3 2 3 3 3 2 1 4 3 3 3 4 2 2 3 5 5 4 5 5 5 5 4 3 4 4 3 3 4 4 6 6 5 5 6 8 12 12 13 11 9 10 10 11 11 11 14 13 11 11 11 11 12 11 10
3 4 4 2 2 2 1 1 1 0 1 0 1 1 0 0 0 0 0 0 0 0 1 1 1 1 2 3 4 4 3 4 4 4 5 4 4 5 4 1 2 6 4 3 4 5 6 6 6 6 6 5 5 4 4 4 3 6 5 5 6 6 7 6 6 8 12 15 14 13 12 13 13 13 14 15 14 11 12 13 12 12 12 12 11
4 3 5 4 3 3 3 3 3 2 2 1 1 1 2 2 1 1 2 2 3 3 3 4 4 4 6 3 4 3 6 4 3 4 2 2 3 4 2 1 4 3 2 0 2 2 7 8 7 7 6 6 5 5 5 5 4 4 5 5 6 7 7 8 8 9 12 14 15 15 15 15 14 15 15 14 14 13 14 14 13 13 13 12 12
7 7 5 3 3 4 3 4 4 3 3 3 3 3 3 3 3 3 4 3 3 4 4 4 3 4 2 3 4 5 6 3 4 4 5 4 3 5 3 1 2 5 4 2 1 1 3 5 6 7 7 7 7 6 6 6 6 7 8 5 5 8 10 9 11 11 11 14 17 16 16 16 16 16 16 15 14 14 15 15 14 14 13 13 14
6 7 4 3 4 4 4 5 5 5 4 4 4 4 3 3 3 4 4 3 3 3 3 3 4 4 4 5 5 4 5 5 5 6 6 6 6 5 5 4 3 3 4 2 3 5 7 3 6 7 8 7 8 7 7 7 8 9 9 6 5 9 11 12 13 13 14 14 16 18 18 17 17 16 16 16 16 15 15 15 15 15 16 16 16
6 4 6 4 5 5 4 6 5 5 5 5 5 4 4 4 4 4 5 2 3 4 5 3 5 4 5 3 3 6 5 5 6 6 6 6 6 4 4 5 6 7 2 5 3 6 3 6 2 6 7 8 8 7 7 8 8 11 10 7 6 7 11 13 14 14 14 15 16 16 17 17 18 17 17 17 17 17 17 16 17 17 17 18 18
6 4 6 5 5 5 6 7 6 5 5 5 5 5 4 4 5 4 6 4 3 5 4 4 5 4 4 4 6 6 5 4 4 5 5 4 5 5 6 7 6 5 4 4 3 5 2 5 3 4 6 6 7 5 6 8 8 8 6 7 7 7 10 14 15 16 17 16 16 16 17 17 18 19 19 18 18 18 19 18 18 18 19 19 19
6 5 5 6 6 6 6 7 6 4 6 5 5 5 4 5 5 6 6 3 4 4 5 5 6 4 4 4 4 6 4 3 6 4 5 6 5 6 6 6 4 7 5 6 6 3 3 2 4 4 1 6 5 5 6 8 8 9 7 7 7 8 12 14 15 17 17 17 17 17 18 18 18 18 19 19 20 19 20 20 20 21 20 20 21
6 6 6 6 6 7 6 6 5 6 5 5 4 5 5 6 5 6 5 4 5 6 6 5 6 4 5 6 6 7 5 5 4 4 5 5 6 5 6 4 4 5 6 4 5 4 3 4 6 5 3 3 4 5 5 6 7 9 8 8 8 10 13 11 15 16 17 18 18 18 18 19 19 19 19 20 21 21 20 21 21 21 21 21 21
6 6 6 6 6 6 6 6 6 6 6 6 5 5 5 6 6 6 6 5 6 7 8 5 5 5 6 7 8 7 6 4 6 6 6 6 5 6 5 6 6 6 5 5 8 10 4 5 4 4 5 4 3 5 6 6 6 11 7 8 9 9 8 7 12 16 17 18 18 18 18 19 20 20 20 20 22 23 23 23 22 22 22 22 22
5 6 6 7 6 6 6 5 6 6 6 6 5 5 5 6 6 7 6 5 7 8 6 7 5 6 7 8 9 8 5 5 7 6 6 6 5 6 5 6 7 6 7 7 8 9 6 4 4 5 2 3 3 6 6 6 5 6 8 8 8 7 7 8 9 14 17 17 18 19 19 19 19 20 20 21 22 23 23 23 23 23 22 21 20
5 7 7 6 5 6 5 6 6 7 6 6 5 4 6 6 7 5 7 7 8 9 6 8 8 7 7 8 9 9 6 7 6 7 7 6 6 6 7 7 7 7 7 7 8 6 9 3 4 3 3 4 4 3 8 8 8 5 8 8 6 7 8 8 8 8 15 17 18 19 20 20 20 21 22 22 23 23 23 22 21 20 19 18 18
5 6 7 6 6 5 6 6 6 6 7 6 5 5 6 7 8 7 7 8 8 9 9 10 10 7 6 8 10 9 5 6 8 8 6 7 6 8 8 7 8 7 6 8 6 7 8 8 5 5 5 4 7 7 6 7 6 5 6 7 8 7 8 9 8 8 12 17 19 19 21 21 22 22 22 23 23 24 23 22 21 20 21 20 20
6 6 5 6 5 6 6 6 6 7 6 6 6 6 8 8 8 9 8 8 9 9 9 9 9 8 9 8 10 9 7 8 9 8 7 7 7 7 7 7 7 8 7 6 8 8 6 7 5 6 3 5 6 7 4 5 6 4 6 7 5 7 7 7 8 9 11 18 19 20 21 21 22 23 24 25 24 23 23 23 22 22 22 23 22
7 5 5 4 5 5 7 7 7 7 7 6 6 7 7 7 8 8 8 8 9 9 10 10 9 9 9 10 10 8 7 9 9 8 8 8 8 7 8 8 7 8 6 6 8 7 7 8 7 6 4 4 5 4 5 6 5 4 4 7 8 8 7 6 6 8 12 16 17 19 20 22 23 24 24 23 22 23 23 23 23 22 22 23 22
6 5 6 5 6 7 7 7 7 7 6 6 7 7 7 7 7 8 8 8 9 9 9 9 9 9 9 10 10 8 8 9 10 9 8 9 7 8 8 8 8 6 6 6 6 6 7 9 8 9 7 7 6 6 5 6 6 6 6 7 6 5 6 7 9 8 6 6 8 11 16 19 22 24 23 22 23 24 24 23 23 23 23 22 23
7 7 6 6 6 6 7 6 7 7 7 6 7 7 7 7 8 8 8 9 9 8 8 9 9 9 10 10 10 9 10 10 10 10 9 8 8 9 9 10 8 6 7 7 7 7 8 8 8 8 9 8 6 9 7 5 6 7 8 7 8 6 7 9 9 6 6 8 12 15 13 10 10 10 18 23 23 24 23 23 23 23 22 23 21
7 8 8 7 7 5 7 6 7 6 6 6 6 7 7 7 7 8 8 8 9 8 8 8 9 9 10 10 10 10 10 10 10 10 9 9 7 9 9 8 7 7 8 7 6 7 8 8 9 9 8 10 9 7 4 1 3 5 7 8 10 10 9 7 8 9 7 7 9 8 10 12 13 15 19 21 23 24 25 23 24 22 22 20 21
7 7 7 6 7 7 6 7 7 6 7 8 6 6 7 8 7 8 9 9 9 9 8 8 8 9 9 9 10 10 11 13 15 14 12 11 8 9 9 8 8 8 8 7 8 8 8 8 9 8 9 9 9 9 7 8 11 13 5 6 9 9 9 8 7 8 8 9 8 7 9 8 9 10 9 10 12 17 19 22 18 21 22 22 24
7 7 6 7 7 8 8 7 6 6 7 6 8 13 10 7 7 7 7 8 8 8 8 8 8 8 10 9 9 14 16 17 17 17 18 18 17 13 10 8 9 9 9 9 9 9 9 9 10 10 10 11 11 11 11 11 9 6 6 6 8 9 6 8 9 7 7 7 9 10 10 6 8 9 8 10 9 10 10 9 11 12 17 24 25
8 7 6 8 8 8 8 8 7 7 7 7 11 12 14 15 10 8 8 9 7 8 8 9 10 9 8 9 8 11 13 14 14 18 18 19 19 20 20 18 13 11 9 10 11 10 10 10 10 9 10 11 11 11 10 10 8 8 8 7 9 7 8 10 12 4 5 10 9 9 11 7 8 10 10 11 10 10 10 11 16 20 23 23 23
8 6 8 9 8 8 7 7 8 9 8 9 12 12 13 14 13 10 8 8 8 8 8 9 9 8 9 8 8 7 8 10 10 10 14 18 19 20 21 20 20 20 18 14 11 10 10 10 11 11 9 10 11 8 9 8 9 8 8 8 8 9 10 10 10 10 3 8 8 8 11 5 7 10 11 11 9 9 11 14 19 20 21 21 21
5 8 9 8 9 8 8 9 10 9 8 8 12 13 13 14 15 13 8 9 9 9 9 9 9 9 8 8 8 8 8 13 12 10 9 10 14 19 20 20 21 22 22 23 21 15 9 11 11 11 10 9 10 10 10 9 6 8 7 8 9 10 11 11 11 11 5 7 6 9 13 6 8 11 13 9 8 10 11 15 20 19 20 20 21
8 9 8 10 9 9 9 9 10 9 9 10 12 13 13 14 15 13 8 9 9 10 10 10 9 9 9 8 9 9 7 8 8 10 9 9 8 8 9 10 11 15 20 22 22 23 19 14 12 13 10 10 12 11 11 9 9 11 9 10 8 10 11 13 12 11 5 8 10 8 13 8 8 9 13 10 8 10 10 12 19 21 22 22 22
9 10 10 10 10 9 9 9 9 10 10 11 11 13 14 14 15 13 8 8 9 9 10 9 10 10 9 9 9 10 9 8 8 9 9 8 8 8 9 9 10 11 11 11 13 13 14 13 14 15 13 12 13 13 11 9 12 12 11 11 10 10 10 9 9 7 8 8 10 8 16 9 7 10 13 7 7 10 9 12 19 20 22 22 22
8 7 8 8 9 9 8 8 8 11 11 11 12 13 14 14 15 9 8 8 9 9 10 10 9 9 8 9 9 10 10 10 11 15 13 8 8 9 10 10 10 9 10 12 15 16 15 13 13 14 13 13 15 13 12 11 10 10 9 8 6 7 9 10 12 7 10 6 11 11 12 13 6 10 12 6 6 9 8 8 13 21 21 22 23
9 9 10 9 9 9 9 8 10 11 11 12 13 14 14 15 10 7 7 8 9 10 11 9 9 9 8 8 9 9 9 10 11 12 15 13 9 10 10 10 10 9 11 9 15 20 20 20 20 19 18 17 18 19 18 21 16 11 8 9 11 8 10 12 12 10 12 6 8 11 12 15 6 9 11 7 7 9 7 7 7 13 20 21 22
10 11 8 8 8 9 9 10 10 10 11 11 13 14 15 14 12 8 7 7 9 10 10 9 8 8 9 13 12 10 10 11 10 14 15 12 10 10 9 10 11 11 11 8 7 8 16 19 20 21 21 21 21 22 21 21 22 17 11 14 11 6 12 11 14 11 9 6 8 11 10 15 4 6 9 3 2 3 5 5 5 7 12 16 20
10 8 7 8 8 8 9 10 10 12 11 11 14 13 15 14 12 8 8 7 9 10 9 9 8 8 8 9 14 13 11 11 14 15 16 13 9 9 9 9 11 13 11 5 7 7 5 6 9 10 12 15 15 13 14 21 21 18 14 15 10 10 13 12 12 11 11 11 8 13 12 12 8 8 6 2 6 4 2 3 6 5 5 5 6
Wind_Direction
302 298 295 295 289 275 271 263 270 270 273 273 273 292 289 277 357 122 96 74 66 33 74 84 62 74 105 107 115 119 115 104 93 86 81 72 49 41 41 34 30 28 24 19 8 352 329 312 296 278 262 256 243 237 234 236 235 220 210 206 200 197 184 191 177 179 167 162 154 143 141 127 131 145 155 147 137 130 127 119 119 118 119 117 121
316 315 311 303 298 287 271 262 259 260 268 279 270 283 286 293 74 81 87 79 67 90 74 58 71 64 58 86 73 72 85 89 76 67 64 57 45 32 32 37 30 24 22 19 13 3 350 332 306 283 272 257 249 238 229 227 233 229 210 203 199 194 181 177 175 171 163 157 149 142 139 124 141 153 149 141 137 132 130 121 113 115 117 118 121
324 327 324 306 303 300 305 288 263 258 251 267 268 275 21 34 67 76 74 69 68 62 75 82 60 62 60 52 58 64 72 76 71 55 43 35 40 33 24 27 27 23 21 20 13 5 352 339 320 291 266 259 251 243 230 224 224 225 227 209 192 201 187 174 169 165 160 152 146 143 135 135 154 147 144 143 137 132 127 125 123 126 124 122 122
333 323 333 338 339 340 331 349 354 313 248 261 22 50 62 63 60 61 64 77 72 63 62 82 82 74 69 66 48 50 60 74 67 57 58 45 34 33 31 28 17 17 17 20 13 9 357 349 336 299 259 247 247 244 238 220 220 223 215 210 201 200 183 170 170 164 154 151 146 141 138 148 147 146 145 139 135 129 126 127 130 126 124 122 125
337 330 345 347 346 349 350 351 6 12 47 60 59 50 60 69 74 80 76 79 76 71 74 69 65 53 75 72 62 62 25 34 58 56 46 40 30 23 25 30 24 12 7 13 18 11 5 6 6 359 282 249 242 245 244 221 218 204 205 207 207 193 173 159 166 164 149 142 141 142 146 150 147 151 149 140 135 129 128 126 132 123 121 124 126
343 337 359 357 358 2 6 7 0 2 31 72 76 58 70 66 64 68 63 69 68 64 76 68 65 66 57 68 86 59 60 47 44 56 62 50 37 29 21 32 35 18 2 360 8 19 14 12 18 45 56 60 24 281 256 221 216 212 204 206 191 163 143 134 141 142 133 135 137 140 141 145 147 145 140 139 126 133 129 128 129 129 125 124 127
352 351 357 6 7 4 7 5 360 2 7 17 64 70 80 82 91 87 76 76 71 65 72 75 73 63 56 40 50 49 45 59 54 54 51 54 52 22 15 30 32 24 10 359 354 5 15 13 19 36 55 66 66 60 98 80 58 229 198 136 112 109 114 116 108 107 115 121 127 132 136 136 136 131 129 128 135 132 136 128 136 136 131 130 125
354 356 2 1 3 10 13 11 12 19 22 31 37 42 52 70 64 96 102 79 80 73 75 80 74 71 58 58 53 48 49 44 48 52 41 39 45 31 12 28 31 24 10 0 1 358 7 14 18 20 39 70 80 84 77 87 95 93 101 107 109 110 112 108 111 112 109 104 101 100 103 106 107 115 115 119 114 125 125 138 138 137 135 126 133
356 356 0 8 11 9 3 8 17 32 43 37 44 36 45 65 57 39 56 92 78 88 69 61 71 69 61 52 44 43 47 39 33 32 32 48 38 26 18 21 25 24 7 3 6 356 360 13 23 21 15 40 83 87 91 91 91 95 97 104 110 110 108 110 112 111 106 110 113 117 120 123 123 120 121 127 131 136 138 149 156 154 147 147 145
353 356 2 12 18 14 10 12 15 25 47 50 51 52 57 62 62 43 45 65 68 72 75 69 64 66 61 57 50 50 46 44 35 32 27 28 31 27 17 18 24 16 5 5 4 358 0 12 16 21 12 25 50 90 95 104 109 111 109 107 110 113 115 116 112 113 114 113 114 115 112 110 117 122 126 125 130 138 147 162 166 168 154 145 158
354 357 1 8 14 14 18 18 24 29 39 46 47 53 62 71 81 79 67 69 80 75 82 85 78 71 64 60 61 55 55 58 47 41 34 23 19 15 1 20 23 16 12 7 355 1 8 7 15 10 7 11 26 54 88 97 111 119 121 120 118 115 116 116 120 124 122 122 117 116 116 122 119 126 128 131 134 133 131 133 155 128 134 162 182
355 355 1 7 11 12 18 19 29 42 52 46 38 35 59 67 68 86 88 72 68 87 96 97 89 74 74 64 63 69 62 58 61 59 46 33 19 11 14 14 20 12 17 5 2 2 6 8 6 8 5 4 20 28 30 75 125 125 124 127 129 133 132 131 134 133 135 132 131 130 130 131 129 129 133 140 149 152 174 171 196 198 223 228 216
358 356 5 1 5 7 19 22 20 35 50 54 60 68 63 58 75 61 84 93 64 37 32 27 85 73 75 88 67 58 60 51 46 40 40 36 33 29 17 14 12 19 11 7 3 6 8 10 2 7 7 3 4 13 19 13 88 126 136 136 136 138 137 139 138 140 139 135 135 132 137 138 142 144 154 159 167 185 189 178 209 217 227 233 223
358 2 6 8 6 9 16 19 21 31 48 51 55 61 51 52 60 74 28 70 86 356 348 329 45 117 114 14 56 93 67 67 68 70 49 32 23 30 34 22 18 3 6 8 14 12 9 4 4 9 8 5 4 357 8 9 3 96 137 140 144 145 145 141 137 135 125 125 125 136 142 149 158 166 180 184 192 197 199 202 217 223 220 235 236
2 3 14 8 9 12 10 8 25 25 41 40 40 42 40 44 43 78 86 37 69 9 11 20 117 63 167 88 355 9 339 71 88 60 52 60 33 26 24 26 8 9 358 7 16 10 2 1 6 8 5 5 358 0 354 3 8 38 62 155 160 158 153 153 149 143 148 138 139 148 174 185 182 185 190 197 203 205 206 216 210 213 217 225 239
356 5 9 15 14 14 360 16 17 20 32 49 45 49 48 51 57 55 90 69 21 25 6 43 89 19 30 70 146 114 1 351 324 311 128 66 65 29 29 16 11 12 12 19 9 4 359 6 7 5 360 356 358 355 355 356 4 8 8 23 167 163 157 151 152 151 153 151 167 183 191 198 196 194 203 209 208 211 211 213 220 223 221 224 231
352 0 4 10 10 13 16 8 19 14 24 35 32 35 46 51 55 66 66 125 96 106 9 48 71 352 122 81 17 24 271 281 346 276 50 28 73 117 109 27 48 21 29 2 357 351 352 360 6 1 358 354 354 351 352 356 357 351 351 0 103 186 170 164 164 163 158 161 181 188 197 204 211 211 210 211 213 213 219 215 224 217 222 230 235
351 353 1 6 11 9 14 20 18 12 16 21 21 19 19 29 25 102 77 58 136 104 90 46 79 60 52 88 133 147 276 259 58 308 327 278 257 210 206 163 223 247 226 240 245 256 205 331 314 332 328 345 340 340 346 356 345 351 338 339 6 358 198 174 167 167 168 172 179 194 205 211 211 210 207 216 215 216 213 218 222 221 225 226 233
340 352 355 354 9 11 14 21 18 18 12 32 28 11 350 3 358 42 63 53 33 50 81 139 116 70 69 78 96 129 135 115 251 290 347 308 228 251 238 219 224 224 250 242 239 236 238 209 225 214 214 171 273 308 334 346 349 348 343 345 359 349 305 210 196 182 174 178 187 193 204 211 216 216 220 222 217 219 233 227 227 225 231 237 237
314 337 350 349 358 5 11 19 27 9 31 37 28 349 355 1 17 17 33 34 36 65 82 13 124 97 114 122 101 90 142 94 155 146 185 290 310 306 270 292 272 248 237 241 232 237 239 239 245 252 220 213 198 198 312 315 350 360 330 334 344 354 341 248 211 201 195 189 178 181 203 213 218 219 220 223 220 217 223 233 245 240 239 240 248
288 292 309 334 354 354 3 20 25 6 34 25 27 31 41 28 14 18 8 6 28 53 80 161 68 158 124 85 112 147 174 175 152 144 168 193 272 270 293 323 292 258 244 241 246 245 240 240 246 236 253 261 246 239 227 229 237 217 315 319 329 339 342 335 250 211 190 190 181 176 187 210 218 220 227 231 233 239 246 245 241 245 248 248 251
318 309 308 276 290 248 75 40 3 320 37 17 21 28 18 26 25 359 347 22 353 21 204 211 215 217 211 167 162 156 172 138 161 126 66 194 239 285 270 300 323 293 264 244 251 246 239 238 240 246 244 244 246 239 246 240 255 242 273 300 310 316 331 328 323 261 217 226 215 191 189 208 216 227 232 235 243 243 245 250 252 253 249 248 249
298 294 270 261 274 233 220 271 228 198 109 31 18 3 331 21 350 36 42 59 335 24 8 351 278 238 214 192 210 196 197 204 200 208 180 200 300 271 274 204 205 292 282 266 252 245 240 233 227 234 228 231 228 231 235 246 247 257 261 284 284 293 297 303 307 256 226 231 236 223 205 220 225 226 231 233 228 234 244 248 250 250 251 255 251
281 295 290 274 249 263 244 284 270 279 288 214 232 215 221 151 146 119 198 198 234 150 168 242 233 233 251 231 229 219 218 209 209 171 167 211 186 246 260 252 274 227 268 293 241 224 227 228 227 226 230 225 230 220 231 235 240 244 256 264 281 280 283 275 262 249 236 230 227 227 217 223 227 230 232 236 239 241 244 246 248 249 251 248 248
287 279 278 274 263 264 269 259 262 245 244 263 247 203 196 192 188 187 185 203 206 196 204 220 208 212 232 221 215 206 226 217 167 175 200 160 178 237 272 168 237 292 285 230 278 263 216 220 214 218 217 223 230 231 230 230 238 240 238 253 264 273 270 275 270 259 243 234 231 229 228 227 230 233 236 240 241 241 242 241 243 249 249 251 255
278 275 261 243 253 248 259 252 230 235 232 226 229 228 210 222 231 235 233 217 184 203 216 225 218 235 210 214 222 216 236 204 202 166 167 144 182 205 224 287 200 256 287 288 275 304 287 230 216 210 207 212 215 213 218 218 224 231 225 224 247 252 259 254 256 255 252 244 231 231 230 229 227 233 237 239 242 244 244 246 244 243 247 246 244
247 263 280 255 249 250 247 245 245 238 236 233 225 221 228 228 240 246 260 232 221 215 237 218 234 234 227 220 230 230 232 213 184 210 186 197 183 184 168 254 293 255 269 275 299 229 240 283 215 212 214 209 208 208 206 205 213 208 207 212 218 232 242 248 247 248 246 241 238 236 234 235 234 234 238 239 241 243 247 251 249 248 247 245 242
261 261 268 252 260 252 247 243 241 240 236 233 231 228 225 222 244 248 257 227 237 243 249 223 249 238 231 231 228 243 229 213 206 213 207 209 210 180 179 189 220 278 285 284 257 262 230 231 296 228 217 213 217 208 203 205 212 205 198 205 206 223 228 237 243 248 248 247 244 240 240 238 239 239 240 241 241 244 245 247 247 247 247 248 248
252 245 260 254 249 249 254 251 240 235 239 237 235 235 226 227 235 236 247 241 232 242 244 237 246 241 238 223 224 246 241 218 225 225 224 224 223 212 204 204 191 216 268 276 266 231 282 198 232 270 205 221 221 210 210 218 216 196 205 206 209 212 222 225 234 238 242 243 247 248 244 243 244 244 243 243 243 243 243 243 245 247 247 248 249
230 244 238 254 254 250 248 256 252 238 237 238 230 234 226 233 234 236 240 222 234 253 242 229 247 231 243 248 236 250 243 209 227 221 217 215 214 216 217 227 192 212 220 251 276 218 276 268 230 264 240 227 216 222 213 228 222 202 208 213 212 218 218 221 227 236 239 243 245 246 246 246 245 245 247 252 256 254 250 249 247 243 245 247 251
234 236 236 243 245 251 244 256 258 252 245 242 230 231 218 234 235 241 239 213 230 247 244 220 237 216 236 246 241 244 235 227 230 229 225 213 222 213 227 220 225 221 230 223 273 283 217 251 251 242 246 237 223 226 229 233 223 209 211 217 220 220 215 222 227 233 237 239 242 243 245 247 248 250 250 250 251 255 261 262 264 264 260 257 258
230 229 230 235 239 242 244 244 254 255 252 248 231 232 222 226 235 237 238 205 224 237 249 227 228 216 227 239 241 237 234 214 230 227 223 222 217 212 213 205 215 217 212 211 233 255 215 210 240 265 230 235 214 220 238 242 230 220 218 221 225 220 218 229 231 231 233 235 238 241 243 245 248 251 253 255 255 254 255 257 259 261 265 267 266
226 227 230 235 235 235 240 239 241 247 246 249 233 230 230 238 236 237 245 221 229 242 239 250 230 221 226 236 245 243 225 221 232 226 222 223 213 219 212 200 217 210 196 212 229 256 274 223 232 242 241 193 249 212 233 237 233 226 223 227 225 219 219 223 229 231 231 233 234 237 240 242 245 250 252 254 255 257 258 259 259 260 262 264 266
214 227 230 233 232 232 233 238 239 243 245 244 238 222 232 238 243 232 239 232 234 244 236 246 243 226 224 231 246 248 225 226 235 233 224 217 209 214 217 205 219 218 203 200 226 233 257 278 258 240 235 181 239 192 210 222 236 217 221 228 223 218 223 224 227 234 232 231 232 234 237 238 240 241 245 248 251 254 255 256 260 262 262 262 260
226 222 230 228 229 227 232 236 237 240 239 240 232 222 231 233 240 239 231 232 233 239 237 240 242 236 227 229 241 242 231 228 236 238 229 226 215 216 224 208 222 224 208 207 208 232 240 257 256 256 219 197 208 232 213 226 231 205 218 230 227 223 226 226 225 234 233 230 231 232 234 235 236 237 238 240 242 244 248 253 256 257 257 256 256
247 238 225 230 227 226 235 238 235 239 238 235 230 220 227 228 233 238 236 231 234 237 238 241 241 234 232 236 240 236 232 233 241 238 232 230 225 223 227 224 216 228 216 202 214 229 231 247 263 246 234 199 239 246 229 221 228 212 207 232 232 235 231 227 226 232 234 233 232 232 234 236 236 236 237 237 239 240 241 243 246 247 248 248 249
251 249 244 222 229 228 236 238 237 236 235 232 231 227 226 226 229 234 234 233 235 236 236 238 239 237 237 234 242 233 226 232 243 239 235 229 229 223 228 230 222 228 221 202 218 217 234 240 258 259 245 237 239 240 213 225 235 224 228 227 228 229 232 232 233 234 239 238 238 238 238 237 236 235 236 238 240 240 240 239 241 242 242 243 245
259 246 247 238 224 236 235 240 239 241 237 231 230 230 229 228 228 230 233 235 237 237 237 236 236 235 239 240 240 232 226 226 238 240 238 236 230 226 229 233 228 222 224 227 214 216 221 239 242 268 269 255 264 244 227 211 226 243 244 243 249 237 229 243 233 231 227 230 231 234 238 238 237 238 238 238 239 240 238 239 240 241 240 240 239
253 256 248 246 239 234 243 239 242 240 240 234 232 233 233 233 232 231 233 235 238 238 237 236 234 235 236 239 240 231 229 228 233 236 238 236 227 231 227 232 227 213 220 227 217 216 221 234 245 242 260 264 234 260 247 194 215 221 247 262 256 222 225 226 247 228 216 234 237 236 238 241 242 239 242 241 241 240 240 240 242 242 242 241 237
244 247 249 246 251 233 241 237 242 241 244 242 234 233 235 233 233 236 232 237 239 239 240 236 233 234 234 236 236 234 230 230 228 232 225 234 224 232 231 228 223 213 219 221 216 215 222 228 234 243 235 251 266 241 262 194 236 260 227 230 255 255 244 225 225 238 235 219 242 240 236 240 242 240 243 244 243 241 241 241 242 243 245 244 241
241 245 247 248 256 255 246 241 246 239 241 242 232 229 236 238 230 240 239 236 236 241 243 241 235 234 236 236 236 236 233 234 230 229 226 221 220 230 231 217 222 218 220 216 216 214 222 225 238 237 246 248 248 260 244 223 228 237 219 190 239 250 260 263 245 224 234 238 243 238 242 222 232 233 232 239 239 241 246 246 247 246 245 243 243
244 243 245 247 244 250 254 247 239 238 240 239 233 230 224 231 235 238 242 241 236 235 241 247 246 234 236 235 238 235 236 237 237 236 236 233 229 225 229 211 217 218 219 219 219 220 223 224 228 229 234 236 243 240 244 240 239 244 235 209 229 240 254 261 266 230 217 225 247 250 247 224 229 241 232 239 243 234 240 236 237 232 238 240 241
241 239 236 247 243 241 243 248 247 237 237 237 234 229 233 232 236 241 242 247 239 235 235 240 248 246 240 235 238 238 238 241 241 239 238 237 236 235 233 229 219 212 217 221 227 221 223 229 233 229 230 240 240 240 241 250 244 235 234 230 236 239 237 248 261 276 196 203 231 245 254 226 213 240 235 236 232 228 225 230 227 230 233 237 240
240 230 235 238 242 241 240 242 246 246 245 235 230 231 233 234 236 238 240 245 245 238 235 237 242 244 245 242 238 231 230 230 233 238 238 237 237 237 237 235 233 227 222 220 226 228 224 232 236 232 233 233 244 241 247 239 245 245 239 237 235 234 242 243 245 249 213 181 224 239 255 215 214 237 244 235 227 230 228 227 230 232 236 239 242
235 230 235 234 239 236 233 241 245 244 249 229 225 232 231 234 240 241 242 240 243 243 238 238 240 241 240 240 246 237 233 232 233 233 233 237 235 237 239 239 237 235 234 232 230 231 228 232 235 238 224 235 242 242 236 238 229 244 233 236 230 233 235 242 242 247 227 188 209 249 259 222 189 231 245 236 214 229 231 228 229 231 235 239 239
230 237 234 234 237 233 230 234 244 249 248 245 225 226 231 239 242 243 243 241 242 243 240 239 240 240 235 235 243 249 236 230 230 230 231 232 231 233 236 236 237 239 238 237 237 236 234 236 235 238 228 214 234 236 234 222 228 236 233 240 227 236 236 239 240 240 228 169 206 242 267 233 196 227 244 240 211 231 228 224 223 227 231 232 234
232 233 232 234 235 231 230 229 238 248 250 240 220 224 227 234 238 242 242 241 244 245 243 238 239 239 236 233 237 245 245 238 229 224 227 226 226 229 229 231 230 231 231 232 232 234 236 236 239 242 240 231 236 237 236 227 229 235 233 239 234 238 245 250 257 240 241 189 205 211 256 253 181 231 246 232 221 230 224 224 222 222 226 229 231
237 239 246 233 241 236 228 224 231 248 250 236 222 224 224 230 238 239 236 240 244 248 249 241 238 237 232 231 236 242 244 245 242 233 230 222 222 229 232 236 235 231 231 227 226 227 229 231 235 237 240 239 241 240 234 231 237 241 247 252 252 250 256 257 256 233 240 191 198 214 250 259 189 232 256 220 216 235 222 221 221 222 224 227 231
235 232 235 232 234 236 236 226 228 242 252 245 232 230 228 229 232 234 235 240 245 248 250 247 239 237 233 225 228 238 243 247 243 235 234 231 231 230 234 239 241 238 240 229 230 233 234 235 237 239 241 240 240 241 238 237 239 237 247 251 246 236 250 259 260 251 252 193 207 205 236 260 212 221 256 246 217 240 226 217 219 224 226 229 233
235 235 229 237 235 231 233 234 226 237 247 247 234 228 226 220 219 225 229 235 248 247 254 251 242 238 235 229 225 233 240 246 243 241 237 232 235 234 235 240 246 248 248 234 236 232 233 238 240 241 242 244 244 244 243 242 242 238 234 243 243 226 249 248 261 255 262 212 205 188 226 245 224 215 244 268 332 249 235 221 209 227 231 237 238
240 241 229 232 240 234 232 236 234 233 246 249 241 224 222 218 221 223 223 231 246 251 248 254 247 241 240 233 230 231 236 241 243 243 241 234 236 234 234 237 246 249 248 232 237 237 232 230 239 242 247 247 248 246 246 245 242 236 232 240 238 229 246 249 252 268 273 252 193 176 217 246 217 233 185 270 265 226 182 210 210 214 223 229 250